USA 143

Satellite information

Favourite Embed

Satellite Type and Status

PAYLOADIN ORBIT

Key statistics

Satellite USA 143 at a glance.

Uptime

9725

Days in orbit

Revolutions

≈ 9.4

Per day

Orbit

MEO

Medium Earth Orbit

Inclination

28.2

Latest

Satellite identification and parameters

Extended collection of information and parameters for USA 143.

Object identification

Identified? True

Debris? False

Object name: USA 143

International designator: 1999-023A

Object number (NORAD): 25724

Object ID (CCSDS): 25724

Country: UNITED STATES OF AMERICA (US)

Current information (Y/N): Y

RCS size: LARGE

Orbital parameters

Period: 153.603 minutes

Inclination: 28.2299 deg

SMA: 9500.781 km

Apoapsis: 5143.707 km

Periapsis: 1101.585 km

RAAN: 71.3014 deg

Eccentricy: 0.2127258

Argument of periapsis: 205.7731 deg

Mean anomaly: 141.951 deg

Mean motion: 9.3748387 rev/day

Mean motion (dot): 0.00000075 rev/day2

B* drag term: 0.00041873964 1/REarth

Two-line elements (TLE)

Creation date: Dec. 12, 2025, 10:14 a.m.

Reference frame: TEME

Reference center: EARTH

Epoch: Dec. 11, 2025, 11:56 p.m. UTC

TLE line 0: 0 USA 143

TLE line 1: 1 25724U 99023A 25345.99780460 .00000075 00000-0 41874-3 0 9994

TLE line 2: 2 25724 28.2299 71.3014 2127258 205.7731 141.9510 9.37483870 54786

Live tracking on map

Real-time ground track for satellite USA 143.

In-orbit conjunctions

There are no conjunctions computed for USA 143, at the moment. Check back to stay up to date, as we update our databases every day.

Go to all conjunctions

Associated space launch

Milstar (Military Strategic & Tactical Relay) is the tactical and strategic multiservice satellite system designed to provide survivable communications for U.S. forces worldwide.

USA 143 was lifted into orbit during the mission ‘Titan IVB | Milstar 3’, on board a Titan IVB space rocket.

The launch took place on April 30, 1999, 4:30 p.m. from Space Launch Complex 40.

For more information about the launch, click the button.

Launch to space Titan IVB | Milstar 3
Titan IVB | Milstar 3

Agency: N/A

Status: Launch Failure

Launch date: April 30, 1999, 4:30 p.m. UTC

Rocket: Titan IVB

Launch pad: Space Launch Complex 40

Location: Cape Canaveral SFS, FL, USA

...

Latest news about this satellite

There are no fresh news available about this satellite. Check back as we update our databases every day.


Newsletter sign-up

Weekly statistics, charts and insights to help you stay on top of the space industry.